Location: Aiyepe
(8.4000°N, 4.2500°E)
Time: 09:21:37
(UTC+00:00)

Daily predictions for brighter satellites

Satellite Brightness Start Highest point End
(mag) Time Altitude Azimuth Time Altitude Azimuth Time Altitude Azimuth
Genesis I 3.3 18:15:32 10° NNW 18:19:20 79° WSW 18:23:08 10° SSE
OE (NEXTSAT) 4.3 18:16:07 10° SSW 18:19:34 62° SE 18:23:01 10° NE
CZ-2D R/B 3.8 18:17:36 10° SSE 18:21:11 38° ENE 18:24:47 10° N
DELTA 2 R/B (1) 3.9 18:16:18 10° NW 18:21:43 55° NE 18:27:09 10° ESE
Cosmos 1500 3.3 18:19:29 10° N 18:23:14 57° E 18:26:58 10° SSE
Meteor 1-11 Rocket 4.2 18:19:47 10° NNE 18:24:51 38° E 18:29:55 10° SSE
NOAA 11 4.2 18:19:40 10° SSE 18:25:10 77° ENE 18:30:39 10° N
STARLINK-1149 4.4 18:21:38 10° NNW 18:25:27 36° NE 18:29:16 10° ESE
Starlink 7 placeholder 3.6 18:24:44 10° S 18:26:45 21° SE 18:28:40 10° ENE
Cosmos 1943 3.5 18:22:56 10° NNW 18:28:32 70° WSW 18:34:05 10° S
STARLINK-1180 4.2 18:26:30 10° NNW 18:30:26 43° NE 18:34:11 11° SE
GPS 2-14 Rocket1 3.4 18:27:31 10° SW 18:31:25 38° SSE 18:35:19 10° E
FALCON 9 R/B 1.6 18:26:43 10° SW 18:33:34 58° SSE 18:36:22 10° ENE
Cosmos 1536 3.8 18:31:53 10° NNE 18:35:22 28° E 18:38:51 10° SE
Cosmos 1624 Rocket 4.0 18:30:07 10° S 18:35:24 85° ESE 18:40:43 10° NNE
STARLINK-1153 3.9 18:31:25 10° NNW 18:35:26 50° NE 18:38:59 13° SE
MOS 1 Rocket 4.4 18:35:23 10° NE 18:38:31 20° E 18:41:41 10° SSE
Cosmos 2278 Rocket 2.1 18:33:02 10° S 18:38:40 72° ESE 18:44:18 10° NNE
STARLINK-1132 3.8 18:36:19 10° NNW 18:40:23 59° NE 18:43:46 14° SE
Cosmos 405 Rocket 3.2 18:37:25 10° NNW 18:41:16 63° W 18:45:01 10° S
Cosmos 1666 3.2 18:41:01 10° NNE 18:44:33 38° E 18:47:45 12° SSE
STARLINK-1177 3.6 18:41:16 10° NNW 18:45:22 69° NE 18:48:34 16° SE
Intelsat 5-2 Rocket 2.4 18:46:25 10° WSW 18:49:06 55° NNW 18:51:30 10° ENE
STARLINK-1167 3.5 18:46:13 10° NNW 18:50:20 80° NE 18:53:21 18° SE
Ariane Rocket 4.3 18:52:49 18° ESE 18:54:32 21° ENE 18:58:16 10° NNE
Cosmos 371 Rocket 3.9 18:50:15 10° SSE 18:54:35 34° E 18:58:55 10° NE
STARLINK-1168 3.6 18:51:09 10° NW 18:55:17 87° SW 18:58:07 20° SSE
Cosmos 2346 Rocket 4.3 18:51:19 10° S 18:57:21 78° E 19:03:26 10° N
SL-4 R/B 2.5 18:54:45 10° SSW 18:58:44 40° SE 19:03:02 10° NE
STARLINK-1164 3.7 18:56:07 10° NW 19:00:14 75° SW 19:02:53 21° SSE
BREEZE-M DEB (TANK) 1.8 18:56:50 10° SSW 19:00:22 66° SE 19:01:36 22° NE
Okean 1-7 2.9 18:59:31 10° S 19:03:47 68° E 19:08:01 10° N
CSL-04 Rocket 3.7 18:58:22 10° SSE 19:03:48 89° ENE 19:09:18 10° NNW
H-2A R/B 2.6 19:01:34 23° ESE 19:03:48 34° ENE 19:08:19 10° NNE
STARLINK-1182 3.9 19:01:08 10° NW 19:05:13 64° SW 19:07:41 23° SSE
SL-24 R/B 4.1 19:01:06 11° SSE 19:05:18 85° E 19:09:59 10° N
STARLINK-1163 4.1 19:06:09 10° NW 19:10:12 54° SW 19:12:29 24° SSE
DNEPR-1 R/B 3.9 19:06:28 10° N 19:11:09 49° ENE 19:12:34 35° ESE
YAOGAN 1 3.9 19:08:30 10° S 19:12:32 39° W 19:16:33 10° NNW
Cosmos 1072 Rocket 4.4 19:08:12 10° N 19:14:28 77° E 19:20:17 12° S
STARLINK-1172 4.4 19:11:12 10° NW 19:15:10 46° SW 19:17:16 24° S
Cosmos 1464 Rocket 4.0 19:09:06 10° N 19:15:26 70° E 19:20:50 15° SSE
SWIFT 4.1 19:12:13 10° WNW 19:15:58 29° NNW 19:19:30 11° NE
ASC 2 Rocket 3.5 19:16:39 10° WSW 19:21:13 83° NNW 19:26:03 17° ENE
NOSS 2-2 (D) 3.2 19:17:52 10° SSW 19:22:17 63° ESE 19:25:56 10° NNE
GPS 2-18 Rocket1 4.4 19:18:56 10° NW 19:22:32 32° NNE 19:23:35 27° NE
Meteor 1-4 Rocket 2.4 19:22:24 36° SSW 19:23:42 82° W 19:27:08 10° N
H-2A ROCKET BODY 2.2 19:22:31 10° W 19:24:55 45° NNW 19:31:18 10° NE
ARIANE 5 DEB (SYLDA) 4.1 19:21:40 10° W 19:26:27 45° S 19:27:02 41° SSE
Meteor 1-19 Rocket 4.3 19:21:52 10° S 19:27:21 75° W 19:32:58 10° N
CZ-2C R/B 3.6 19:23:54 10° NNE 19:28:29 82° ESE 19:31:58 18° S
Cosmos 2251 Rocket 4.2 19:25:50 10° NNW 19:30:54 53° WSW 19:34:41 18° S
Gbstr 26 Del rocket 4.3 19:27:01 10° NW 19:34:46 73° SW 19:37:54 35° SSE
STARLINK-60 3.9 19:31:53 10° SW 19:34:56 45° NW 19:35:12 44° NW
ARGOS 3.1 19:34:17 48° SE 19:35:34 65° ENE 19:40:52 10° N
Meteor 2-4 Rocket 3.5 19:33:50 30° S 19:36:33 73° E 19:41:53 10° N
NOSS 2-2 (E) 4.1 19:35:28 10° SW 19:39:34 48° WNW 19:43:04 10° N
Cosmos 2297 3.5 19:41:01 40° S 19:42:59 67° ESE 19:48:35 10° NNE
IRS-1A Rocket 4.2 19:42:50 49° SSE 19:44:29 79° ENE 19:50:16 10° N
ARIANE 5 R/B 3.9 19:23:17 10° W 19:45:52 61° S 19:47:13 50° SE
CZ-2C R/B 3.4 19:45:56 34° S 19:48:09 64° WSW 19:53:34 10° NNW
Cosmos 1452 Rocket 4.3 19:44:41 10° SSW 19:49:47 51° WNW 19:54:53 10° N
Cosmos 332 Rocket 4.0 19:46:47 19° SSW 19:50:15 68° WNW 19:55:06 10° N
Cosmos 1607 4.2 19:45:01 10° NNW 19:51:22 65° WSW 19:53:40 40° S
CZ-2C R/B 3.3 19:48:32 10° N 19:53:59 56° WNW 19:59:23 10° SSW
Hubble Space Telescope 3.3 19:52:56 10° N 19:54:28 12° NNE 19:54:28 12° NNE
Okean 3 4.5 20:00:13 43° NNW 20:00:13 43° NNW 20:03:13 10° N
USA 267 3.2 19:58:37 58° SSE 20:00:01 82° SW 20:06:35 10° NW
ASTEX 1 3.8 19:59:57 54° SW 20:00:31 58° W 20:05:18 10° NNW
Cosmos 1743 4.2 19:57:39 10° NNW 20:00:03 34° NW 20:00:03 34° NW
Cosmos 407 Rocket 3.9 19:56:37 10° N 20:00:48 52° NNE 20:00:48 52° NNE
Cosmos 614 Rocket 4.1 19:57:47 10° NNW 20:02:18 70° NNW 20:02:18 70° NNW
ARIANE 5 DEB (SYLDA) 4.5 20:01:16 10° WSW 20:03:36 33° SW 20:03:36 33° SW
Meteor 1-13 Rocket 4.4 20:10:50 64° N 20:10:50 64° N 20:15:32 10° N
Mugunghwa Rocket 4.4 20:06:19 10° WNW 20:14:18 80° SSW 20:15:13 71° SSE
Ariane 3 Deb 3.7 19:52:34 10° W 20:14:35 78° S 20:14:45 77° SSE
Resurs 01 Rocket 4.4 20:28:14 11° N 20:28:14 11° N 20:28:21 10° N
Centaur AC-42 3.9 20:27:08 10° W 20:32:41 52° S 20:33:03 52° S
Centaur AC-42 3.9 20:27:08 10° W 20:32:42 52° S 20:33:03 52° S
Centaur AC-42 3.9 20:27:08 10° W 20:32:42 52° S 20:33:02 52° S
Ariane H10+ 4.4 19:50:13 10° W 20:35:13 85° S 20:39:16 60° E
Milstar 3 Cent rocket 4.4 20:42:06 10° W 20:48:59 43° NNW 21:02:54 10° NE
